Wind_Speed
10 9 8 7 5 5 5 3 4 2 2 2 0 2 3 2 3 4 5 5 5 6 5 6 7 8 10 9 12 15 14 14
10 7 7 6 4 4 3 2 2 4 1 2 1 3 4 4 5 4 3 4 4 5 5 6 7 6 7 8 9 16 9 10
12 6 5 5 1 2 3 2 2 2 2 3 2 2 1 1 3 3 3 1 2 3 5 7 9 8 6 5 3 4 5 6
10 9 5 8 7 7 5 3 4 3 3 2 1 5 6 9 5 6 4 2 1 4 4 4 3 5 7 3 1 3 3 3
10 8 2 3 3 7 10 11 8 7 6 5 2 6 6 7 10 9 7 4 2 1 1 1 2 5 3 2 2 1 5 6
6 5 6 4 7 6 4 3 2 8 12 9 8 8 8 10 14 13 15 9 7 6 4 4 5 5 3 3 5 3 4 4
10 5 4 6 8 9 12 10 9 10 6 9 9 8 11 12 12 13 11 12 14 11 8 10 11 6 7 7 6 6 5 6
7 4 6 9 11 10 9 10 8 9 10 13 13 14 12 16 14 13 16 15 12 13 14 15 15 12 11 12 11 10 9 8
8 1 3 3 7 13 15 14 13 15 16 15 17 18 20 19 17 21 19 16 16 16 12 20 18 14 14 15 17 15 15 13
4 4 3 2 4 8 11 14 15 17 17 17 21 22 23 24 23 23 22 22 21 21 18 19 18 19 23 21 22 23 18 16
5 9 9 10 8 7 9 13 16 18 20 23 24 29 30 30 30 30 27 25 27 23 26 25 23 24 23 20 17 17 18 22
2 8 11 15 13 13 14 16 21 24 27 29 29 19 20 27 23 29 29 25 27 24 24 28 28 25 26 27 27 21 21 21
7 4 12 9 8 9 11 10 10 12 12 15 16 16 12 14 20 22 27 22 25 35 25 29 19 19 17 22 32 31 28 24
12 13 15 17 19 18 18 18 18 17 16 14 12 14 14 15 17 16 15 14 11 17 16 27 25 27 14 14 4 14 26 31
16 16 17 16 15 16 18 20 21 19 22 22 19 18 18 16 15 14 14 13 14 12 9 14 16 15 20 11 2 4 3 15
16 16 17 16 17 18 17 17 17 17 18 20 22 21 18 16 14 15 16 15 12 10 10 11 13 11 17 17 25 23 4 3
16 15 19 16 16 18 20 22 20 21 21 22 24 24 23 23 24 24 22 20 20 19 17 15 12 11 9 6 11 21 29 14
14 15 14 17 18 20 23 20 19 20 20 20 23 26 28 29 29 27 26 25 23 23 23 23 24 18 14 13 9 6 5 9
11 12 15 15 18 20 18 15 15 16 20 21 25 26 26 26 26 25 23 22 22 20 21 22 20 19 21 18 18 17 11 10
12 12 14 13 16 22 16 15 17 19 19 21 24 26 25 26 24 23 23 22 22 20 20 17 19 20 19 18 21 19 19 19
Wind_Direction
132 129 121 108 101 106 136 156 149 154 160 172 171 96 91 76 83 85 69 71 77 90 104 109 120 136 148 133 89 99 125 117
152 138 132 121 99 113 120 78 207 224 240 191 177 115 109 63 86 50 66 78 76 86 97 106 114 134 154 151 100 88 138 125
171 172 169 166 176 171 132 63 117 147 129 113 127 167 168 152 354 354 353 48 80 98 109 108 95 100 136 151 127 42 135 127
170 187 163 212 226 237 217 265 220 179 132 91 331 321 264 229 269 310 300 300 92 123 118 107 94 80 103 63 71 44 110 191
171 184 190 212 256 252 260 248 253 231 214 197 253 306 206 217 285 273 270 228 261 195 177 301 24 44 122 143 215 233 314 209
196 184 198 216 229 266 285 168 81 224 217 226 239 239 244 249 260 279 264 250 244 239 256 241 193 222 218 242 223 242 51 191
159 182 220 235 258 272 284 280 280 271 266 229 241 264 245 259 267 259 265 247 253 246 235 216 232 258 257 253 245 262 280 274
221 220 259 268 273 285 295 287 285 268 263 252 249 266 258 255 257 256 263 250 253 244 241 238 243 244 242 244 240 238 258 242
163 201 308 277 280 268 267 258 271 265 267 252 253 260 250 249 246 247 257 259 263 263 275 242 235 236 238 248 247 244 239 237
161 259 244 269 308 287 262 253 255 259 256 254 254 257 253 242 245 246 248 254 254 266 271 257 252 249 246 247 251 244 242 246
239 230 218 232 258 280 266 263 262 259 261 264 261 262 258 250 249 251 253 246 253 251 258 263 258 250 249 246 242 237 237 238
241 241 243 239 257 267 269 280 287 283 279 280 280 289 301 273 259 264 263 261 267 265 273 270 269 261 263 263 255 260 266 241
257 329 59 45 359 319 337 325 340 354 352 350 2 3 4 321 286 290 266 262 264 268 260 272 276 264 276 278 264 256 253 251
62 50 30 14 3 1 355 348 344 340 340 343 9 6 350 342 349 344 340 338 301 279 288 264 257 263 249 254 263 252 244 253
51 37 27 23 11 352 343 335 335 346 341 340 343 338 341 342 350 341 326 326 316 297 284 267 259 263 259 235 299 224 204 245
49 38 28 18 6 4 14 18 6 351 343 333 330 333 346 354 347 349 339 328 334 330 322 303 280 258 264 258 244 240 201 253
45 34 26 16 11 5 2 359 350 343 345 339 335 335 332 331 335 331 331 332 332 316 311 319 331 310 277 268 254 251 242 242
36 27 36 7 356 355 353 357 352 354 358 1 353 343 337 327 325 328 327 325 323 312 311 304 299 302 298 280 276 247 226 225
43 41 29 5 355 355 0 357 345 344 340 337 335 333 328 324 322 323 322 319 322 316 312 305 294 298 282 284 272 271 284 264
65 43 20 358 356 355 359 351 339 334 334 332 330 324 322 318 316 313 310 305 312 303 302 303 302 280 281 294 262 271 278 278
Height
844 844 845 845 846 846 845 846 847 846 846 846 846 845 845 846 846 845 845 844 843 843 843 842 842 841 841 843 844 844 844 846
844 845 845 845 846 846 845 845 846 846 845 845 846 846 846 845 846 846 845 845 844 844 844 844 842 842 842 843 844 845 845 845
845 845 845 845 846 846 845 845 845 845 845 845 845 845 846 847 846 846 846 845 845 845 845 845 844 843 842 844 844 844 846 845
843 844 845 845 845 844 844 844 844 845 845 845 845 845 845 845 846 846 846 846 845 845 846 846 846 844 844 844 845 846 846 846
843 843 844 845 846 845 845 844 844 844 844 843 844 844 844 844 845 845 845 845 845 845 845 846 846 846 845 845 846 846 846 846
843 843 844 844 844 844 844 845 844 843 843 842 843 843 844 844 843 843 844 844 844 844 844 845 845 846 845 846 846 846 846 846
843 844 844 844 844 844 844 843 843 842 842 842 842 841 841 842 841 841 841 841 842 842 842 843 843 843 844 845 845 845 845 845
841 842 843 843 843 843 842 842 842 841 841 840 839 839 839 839 839 838 838 838 838 839 839 840 840 840 841 842 842 843 843 844
839 840 840 840 840 839 839 839 839 838 837 837 836 835 834 834 834 834 835 835 835 835 836 836 836 836 837 838 839 840 840 841
836 837 837 837 836 835 835 835 835 834 833 833 832 830 829 829 829 829 829 829 830 831 831 832 832 833 833 833 833 835 835 836
834 834 834 833 833 832 832 832 831 830 829 827 826 826 824 823 823 823 824 824 825 825 825 826 827 827 828 829 829 830 830 832
832 831 831 830 831 831 831 831 831 829 828 827 824 823 823 821 820 820 821 821 821 821 822 823 822 823 824 825 824 824 827 827
830 832 834 834 834 833 831 829 829 828 828 826 823 819 820 818 819 817 816 814 814 818 813 817 816 819 819 818 819 820 821 822
830 831 830 830 829 829 828 826 825 824 823 822 819 818 817 817 816 815 814 813 810 811 810 810 810 814 812 816 817 815 814 815
830 831 831 830 829 827 825 823 822 820 819 818 817 817 815 815 813 812 812 810 809 808 806 809 807 807 810 811 813 806 808 808
832 832 831 830 829 828 827 827 826 825 822 819 816 814 812 811 809 809 808 807 805 805 805 804 804 801 803 803 803 804 805 807
832 831 831 830 829 828 826 825 825 822 819 817 814 811 809 808 807 805 804 804 803 801 800 800 800 800 799 795 794 796 797 801
831 831 831 831 830 828 827 825 823 821 818 815 813 810 807 805 803 801 801 799 798 797 796 795 795 795 794 793 793 791 790 791
832 831 832 830 828 827 826 824 823 821 818 816 813 810 807 804 802 800 797 796 794 792 791 789 789 789 789 789 788 788 788 785
832 831 830 829 827 826 825 824 822 819 817 814 812 809 805 802 799 797 795 792 790 789 787 786 785 785 784 784 782 782 784 784